カタログに戻る

STARLINK-3997

運用中通信VLEO
NORAD 52609·PAYLOAD·🇺🇸 United States

打ち上げ May 14, 2022 から Cape Canaveral Space Force Station

Loading…

次のパス (今後24時間)

TLE

最新Source: CelesTrak SupGP

元期: Sep 15, 2026, 01:53 UTC

1 52609C 22052M   26258.07895833  .00017151  00000+0  50677-3 0  2589
2 52609  53.1579 140.7228 0001447  88.3730 166.2685 15.34378678    10

AllMySatでSTARLINK-3997をリアルタイム追跡

Download on the App Store